User: anonymous   Login
Location: Unspecified
(0.0000°N, 0.0000°E)
Time: 22:13:59
(UTC+00:00)
Language:

STARLINK-3328 - Orbit

View from above orbital plane
View from above orbital plane
View from above satellite
View from above satellite

Ground track
Ground track

The orbit is defined by the following mean orbital elements,

1 50832U          26145.42349199 +.00000000 +00000-0 -91323-5 0 00004
2 50832  53.2104 194.6984 0001253  72.9965 287.1165 15.08834825    09
Epoch (UTC): 25 May 2026 10:09:49
Eccentricity: 0.0001253
inclination: 53.2104°
perigee height: 539 km
apogee height: 541 km
right ascension of ascending node: 194.6984°
argument of perigee: 72.9965°
revolutions per day: 15.08834825
mean anomaly at epoch: 287.1165°

The dashed part of the orbit path shows where the satellite is in the earth's shadow,  

DLR